• In Italy
  • List of Countries
  • For 7 days
  • Water Temperature
  • Satellite Maps
  • Weather Map
  • Weather Widgets
  • user-avatar
    Login

    Hourly Weather New Delhi

    Today, 23 September, Saturday

    Time Temperature Precipitation Wind Pressure Humidity
    00:00 +26°C° 1.3 mm 4 mps 733 mmHg 90%
    01:00 +26°C° 1.3 mm 4 mps 733 mmHg 90%
    02:00 +26°C° 1.3 mm 5 mps 733 mmHg 89%
    03:00 +26°C° 1.7 mm 4 mps 733 mmHg 89%
    04:00 +26°C° 1.7 mm 4 mps 733 mmHg 89%
    05:00 +26°C° 0 mm 2 mps 732 mmHg 91%
    06:00 +26°C° 2.4 mm 3 mps 733 mmHg 90%
    07:00 +26°C° 2.4 mm 3 mps 733 mmHg 89%
    08:00 +26°C° 2.4 mm 3 mps 734 mmHg 89%
    09:00 +26°C° 2.4 mm 3 mps 734 mmHg 88%
    10:00 +26°C° 2.4 mm 4 mps 734 mmHg 87%
    11:00 +27°C° 0 mm 3 mps 734 mmHg 86%
    12:00 +27°C° 0.8 mm 4 mps 734 mmHg 85%
    13:00 +27°C° 0.8 mm 4 mps 734 mmHg 83%
    14:00 +27°C° 0.8 mm 5 mps 734 mmHg 82%
    15:00 +27°C° 0.3 mm 5 mps 734 mmHg 82%
    16:00 +27°C° 0.3 mm 5 mps 734 mmHg 82%
    17:00 +27°C° 0.3 mm 5 mps 734 mmHg 83%
    18:00 +26°C° 0 mm 5 mps 734 mmHg 83%
    19:00 +26°C° 0 mm 4 mps 734 mmHg 82%
    20:00 +26°C° 0 mm 4 mps 735 mmHg 82%
    21:00 +26°C° 0 mm 3 mps 735 mmHg 83%
    22:00 +26°C° 0 mm 3 mps 735 mmHg 83%
    23:00 +26°C° 0 mm 2 mps 735 mmHg 83%

    Tomorrow, 24 September, Sunday

    Time Temperature Precipitation Wind Pressure Humidity
    00:00 +26°C° 0 mm 2 mps 735 mmHg 84%
    01:00 +26°C° 0 mm 2 mps 734 mmHg 85%
    02:00 +26°C° 0 mm 2 mps 734 mmHg 85%
    03:00 +26°C° 0 mm 2 mps 734 mmHg 86%
    04:00 +26°C° 0 mm 2 mps 735 mmHg 87%
    05:00 +26°C° 0 mm 2 mps 735 mmHg 87%
    06:00 +26°C° 0 mm 2 mps 735 mmHg 84%
    07:00 +27°C° 0 mm 2 mps 736 mmHg 80%
    08:00 +28°C° 0 mm 2 mps 736 mmHg 77%
    09:00 +30°C° 0.1 mm 2 mps 736 mmHg 71%
    10:00 +31°C° 0.1 mm 3 mps 736 mmHg 65%
    11:00 +34°C° 0.1 mm 3 mps 736 mmHg 59%
    12:00 +34°C° 0 mm 3 mps 735 mmHg 57%
    13:00 +34°C° 0 mm 3 mps 735 mmHg 55%
    14:00 +35°C° 0 mm 3 mps 734 mmHg 53%
    15:00 +34°C° 0 mm 3 mps 734 mmHg 55%
    16:00 +34°C° 0 mm 3 mps 734 mmHg 57%
    17:00 +32°C° 0 mm 2 mps 734 mmHg 60%
    18:00 +31°C° 0 mm 2 mps 734 mmHg 62%
    19:00 +30°C° 0 mm 2 mps 734 mmHg 64%
    20:00 +30°C° 0 mm 1 mps 734 mmHg 66%
    21:00 +29°C° 0 mm 1 mps 734 mmHg 67%
    22:00 +29°C° 0 mm 1 mps 734 mmHg 67%
    23:00 +29°C° 0 mm 1 mps 734 mmHg 68%

    Day after tomorrow, 25 September, Monday

    Time Temperature Precipitation Wind Pressure Humidity
    00:00 +28°C° 0 mm 1 mps 734 mmHg 68%
    01:00 +28°C° 0 mm 1 mps 733 mmHg 69%
    02:00 +28°C° 0 mm 2 mps 733 mmHg 69%
    03:00 +28°C° 0 mm 2 mps 733 mmHg 69%
    04:00 +28°C° 0 mm 1 mps 733 mmHg 69%
    05:00 +28°C° 0 mm 1 mps 733 mmHg 69%
    06:00 +29°C° 0 mm 1 mps 734 mmHg 63%
    07:00 +30°C° 0 mm 2 mps 734 mmHg 58%
    08:00 +31°C° 0 mm 2 mps 735 mmHg 52%
    09:00 +34°C° 0 mm 2 mps 735 mmHg 46%
    10:00 +36°C° 0 mm 3 mps 735 mmHg 39%
    11:00 +38°C° 0 mm 3 mps 735 mmHg 33%
    12:00 +39°C° 0 mm 3 mps 734 mmHg 30%
    13:00 +41°C° 0 mm 4 mps 734 mmHg 27%
    14:00 +41°C° 0 mm 4 mps 733 mmHg 24%
    15:00 +40°C° 0 mm 3 mps 733 mmHg 27%
    16:00 +39°C° 0 mm 3 mps 732 mmHg 29%
    17:00 +38°C° 0 mm 2 mps 732 mmHg 32%
    18:00 +36°C° 0 mm 2 mps 732 mmHg 37%
    19:00 +35°C° 0 mm 2 mps 732 mmHg 42%
    20:00 +32°C° 0 mm 2 mps 733 mmHg 46%
    21:00 +32°C° 0 mm 2 mps 733 mmHg 49%
    22:00 +31°C° 0 mm 2 mps 733 mmHg 51%
    23:00 +31°C° 0 mm 1 mps 733 mmHg 53%

    26 September, Tuesday

    Time Temperature Precipitation Wind Pressure Humidity
    00:00 +30°C° 0 mm 1 mps 733 mmHg 53%
    01:00 +30°C° 0 mm 1 mps 733 mmHg 54%
    02:00 +30°C° 0 mm 1 mps 733 mmHg 54%
    03:00 +30°C° 0 mm 2 mps 733 mmHg 52%
    04:00 +29°C° 0 mm 2 mps 733 mmHg 51%
    05:00 +29°C° 0 mm 2 mps 733 mmHg 49%
    06:00 +30°C° 0 mm 2 mps 734 mmHg 48%
    07:00 +31°C° 0 mm 2 mps 734 mmHg 48%
    08:00 +33°C° 0 mm 3 mps 735 mmHg 47%
    09:00 +35°C° 0 mm 3 mps 735 mmHg 41%
    10:00 +36°C° 0 mm 3 mps 735 mmHg 36%
    11:00 +38°C° 0 mm 3 mps 735 mmHg 30%
    12:00 +40°C° 0 mm 4 mps 735 mmHg 28%
    13:00 +41°C° 0 mm 4 mps 734 mmHg 26%
    14:00 +42°C° 0 mm 4 mps 734 mmHg 23%
    15:00 +40°C° 0 mm 3 mps 733 mmHg 26%
    16:00 +39°C° 0 mm 3 mps 733 mmHg 29%
    17:00 +38°C° 0 mm 2 mps 733 mmHg 32%
    18:00 +36°C° 0 mm 2 mps 733 mmHg 36%
    19:00 +35°C° 0 mm 2 mps 733 mmHg 40%
    20:00 +33°C° 0 mm 1 mps 733 mmHg 43%
    21:00 +32°C° 0 mm 1 mps 734 mmHg 45%
    22:00 +32°C° 0 mm 1 mps 734 mmHg 47%
    23:00 +31°C° 0 mm 1 mps 734 mmHg 48%

    27 September, Wednesday

    Time Temperature Precipitation Wind Pressure Humidity
    00:00 +31°C° 0 mm 1 mps 734 mmHg 48%
    01:00 +31°C° 0 mm 1 mps 733 mmHg 48%
    02:00 +30°C° 0 mm 1 mps 733 mmHg 48%
    03:00 +30°C° 0 mm 1 mps 733 mmHg 47%
    04:00 +30°C° 0 mm 2 mps 733 mmHg 46%
    05:00 +29°C° 0 mm 2 mps 734 mmHg 45%
    06:00 +30°C° 0 mm 2 mps 734 mmHg 45%
    07:00 +31°C° 0 mm 2 mps 735 mmHg 45%
    08:00 +32°C° 0 mm 2 mps 735 mmHg 44%
    09:00 +35°C° 0 mm 3 mps 735 mmHg 40%
    10:00 +36°C° 0 mm 3 mps 735 mmHg 36%
    11:00 +38°C° 0 mm 3 mps 735 mmHg 31%
    12:00 +40°C° 0 mm 4 mps 735 mmHg 29%
    13:00 +41°C° 0 mm 4 mps 734 mmHg 26%
    14:00 +42°C° 0 mm 4 mps 733 mmHg 24%
    15:00 +40°C° 0 mm 3 mps 733 mmHg 26%
    16:00 +39°C° 0 mm 3 mps 733 mmHg 29%
    17:00 +38°C° 0 mm 2 mps 732 mmHg 31%
    18:00 +36°C° 0 mm 2 mps 733 mmHg 34%
    19:00 +35°C° 0 mm 2 mps 733 mmHg 37%
    20:00 +33°C° 0 mm 1 mps 733 mmHg 40%
    21:00 +32°C° 0 mm 1 mps 733 mmHg 41%
    22:00 +32°C° 0 mm 1 mps 733 mmHg 42%
    23:00 +31°C° 0 mm 1 mps 733 mmHg 44%

    28 September, Thursday

    Time Temperature Precipitation Wind Pressure Humidity
    00:00 +31°C° 0 mm 1 mps 733 mmHg 44%
    01:00 +31°C° 0 mm 1 mps 733 mmHg 43%
    02:00 +30°C° 0 mm 1 mps 733 mmHg 43%
    03:00 +30°C° 0 mm 2 mps 733 mmHg 44%
    04:00 +30°C° 0 mm 2 mps 733 mmHg 44%
    05:00 +29°C° 0 mm 2 mps 733 mmHg 44%
    06:00 +30°C° 0 mm 2 mps 734 mmHg 44%
    07:00 +31°C° 0 mm 2 mps 734 mmHg 44%
    08:00 +32°C° 0 mm 2 mps 735 mmHg 44%
    09:00 +34°C° 0 mm 2 mps 735 mmHg 39%
    10:00 +36°C° 0 mm 2 mps 735 mmHg 34%
    11:00 +38°C° 0 mm 3 mps 735 mmHg 29%
    12:00 +39°C° 0 mm 3 mps 734 mmHg 27%
    13:00 +40°C° 0 mm 3 mps 733 mmHg 24%
    14:00 +42°C° 0 mm 4 mps 733 mmHg 22%
    15:00 +40°C° 0 mm 3 mps 733 mmHg 24%
    16:00 +39°C° 0 mm 3 mps 732 mmHg 27%
    17:00 +38°C° 0 mm 2 mps 732 mmHg 30%
    18:00 +37°C° 0 mm 2 mps 732 mmHg 33%
    19:00 +35°C° 0 mm 2 mps 733 mmHg 36%
    20:00 +34°C° 0 mm 2 mps 733 mmHg 40%
    21:00 +32°C° 0 mm 1 mps 733 mmHg 41%
    22:00 +32°C° 0 mm 1 mps 733 mmHg 43%
    23:00 +31°C° 0 mm 1 mps 733 mmHg 44%
    Show more